Regional Weather Roundup
Issued by NWS Goodland, KS

Home | Current Version | Previous Version | Graphics & Text | Print | Product List | Glossary On
Versions: 1 2 3 4 5 6 7 8 9 10 11 12 13 14 15 16 17 18 19 20 21 22 23 24 25 26 27 28 29 30 31 32 33 34 35 36 37 38 39 40 41 42 43 44 45 46 47 48 49 50
000
ASUS43 KGLD 281808
RWRGLD

GOODLAND FORECAST AREA HOURLY WEATHER ROUNDUP
NATIONAL WEATHER SERVICE GOODLAND KS
1100 AM MST WED JAN 28 2015

...OFFICIAL OBSERVATIONS...

CITY           SKY/WX    TMP DP  RH WIND       PRES   REMARKS
GOODLAND KS    SUNNY     59  34  39 NW23      29.97S
HILL CITY KS   FAIR      65  31  28 NW28G37   29.86F
IMPERIAL NEB   SUNNY     63  29  27 NW32G43   29.91F
MCCOOK NEB     PTSUNNY   62  34  35 NW20G29   29.87F
AKRON CO       SUNNY     57  27  31 NW25G38   30.01S
BURLINGTON CO  SUNNY     59  31  34 NW28G33   30.00S
LIMON CO       SUNNY     56  20  24 NW40G47   30.04F
$$

...UNOFFICIAL OBSERVATIONS...

CITY           SKY/WX    TMP DP  RH WIND       PRES   REMARKS
COLBY KS       SUNNY     61  37  41 NW25      29.93F
GOVE KS          N/A     65  32  29 MISG        N/A
NORTON KS      SUNNY     61  28  29 W24G33    29.84F
SHARON SPRINGS   N/A     62  33  34 NW21G30     N/A
KIT CARSON CO    N/A     61  29  30 MISG        N/A
YUMA CO          N/A     59  27  29 N37         N/A
$$



USA.gov is the U.S. government's official web portal to all federal, state and local government web resources and services.